OVO1019 ZJHK-ZSAM

Flight info

Callsign OVO1019
Flight time 1h 20m
Altitude 29100
Route SAMAS G221 BIGRO R200 BEBEM A470 TEBON
Aircraft A359/H-SDE2E3GHIJ1J3J4J5LM1ORWXYZ/LB1D1

Departure

Time 2026-05-08 13:55
Airport Haikou Meilan International Airport (ZJHK)

Arrival

Time 2026-05-08 15:15
Airport Xiamen Gaoqi International Airport (ZSAM)
Time Latitude Longitude Altitude Speed Heading
2026-05-08 13:17 19.94866 110.45604 64 ft 0 kts 191°
2026-05-08 13:42 19.94878 110.45606 64 ft 4 kts 189°
2026-05-08 13:43 19.94904 110.45612 54 ft 4 kts 192°
2026-05-08 13:43 19.94931 110.45618 54 ft 4 kts 194°
2026-05-08 13:43 19.94946 110.45622 54 ft 2 kts 194°
2026-05-08 13:47 19.94945 110.45622 54 ft 0 kts 197°
2026-05-08 13:48 19.94941 110.45618 54 ft 1 kts 214°
2026-05-08 13:48 19.94937 110.45605 58 ft 1 kts 263°
2026-05-08 13:48 19.94942 110.45599 56 ft 1 kts 305°
2026-05-08 13:48 19.94951 110.45597 54 ft 1 kts 341°
2026-05-08 13:49 19.94960 110.45596 54 ft 1 kts 351°
2026-05-08 13:49 19.94969 110.45595 55 ft 2 kts 354°
2026-05-08 13:49 19.95009 110.45576 58 ft 11 kts 324°
2026-05-08 13:49 19.95090 110.45536 56 ft 14 kts 354°
2026-05-08 13:50 19.95186 110.45519 56 ft 14 kts 320°
2026-05-08 13:50 19.95204 110.45425 61 ft 14 kts 269°
2026-05-08 13:50 19.95204 110.45315 61 ft 16 kts 270°
2026-05-08 13:50 19.95203 110.45189 60 ft 18 kts 269°
2026-05-08 13:51 19.95202 110.45044 59 ft 21 kts 270°
2026-05-08 13:51 19.95202 110.44911 58 ft 17 kts 270°
2026-05-08 13:51 19.95219 110.44829 50 ft 6 kts 319°
2026-05-08 13:51 19.95252 110.44821 55 ft 0 kts 360°
2026-05-08 13:53 19.95269 110.44821 51 ft 8 kts
2026-05-08 13:53 19.95349 110.44860 53 ft 17 kts 47°
2026-05-08 13:53 19.95372 110.44961 52 ft 0 kts 90°
2026-05-08 13:54 19.95372 110.44985 52 ft 19 kts 90°
2026-05-08 13:54 19.95373 110.45401 61 ft 91 kts 90°
2026-05-08 13:54 19.95375 110.46295 62 ft 150 kts 90°
2026-05-08 13:54 19.95381 110.47529 391 ft 174 kts 89°
2026-05-08 13:55 19.95393 110.48812 1152 ft 170 kts 87°
2026-05-08 13:55 19.95854 110.49989 1668 ft 187 kts 46°
2026-05-08 13:55 19.98472 110.51295 2435 ft 225 kts 26°
2026-05-08 13:56 19.99884 110.52080 3093 ft 232 kts 31°
2026-05-08 13:56 20.01277 110.52986 3804 ft 236 kts 34°
2026-05-08 13:56 20.02658 110.53960 4513 ft 240 kts 35°
2026-05-08 13:56 20.04045 110.54979 5187 ft 245 kts 36°
2026-05-08 13:57 20.05447 110.56031 5906 ft 248 kts 36°
2026-05-08 13:57 20.06857 110.57102 6611 ft 252 kts 36°
2026-05-08 13:57 20.08298 110.58202 7311 ft 255 kts 36°
2026-05-08 13:57 20.09846 110.59143 8021 ft 260 kts 20°
2026-05-08 13:58 20.11649 110.59368 8626 ft 271 kts 353°
2026-05-08 13:58 20.13557 110.58961 9137 ft 285 kts 346°
2026-05-08 13:58 20.15504 110.58435 9828 ft 291 kts 346°
2026-05-08 13:58 20.17473 110.57909 10361 ft 303 kts 346°
2026-05-08 13:59 20.19615 110.57351 10666 ft 323 kts 346°
2026-05-08 13:59 20.21831 110.56780 10946 ft 341 kts 346°
2026-05-08 13:59 20.24224 110.56170 11274 ft 356 kts 346°
2026-05-08 13:59 20.26663 110.55550 11773 ft 364 kts 346°
2026-05-08 14:00 20.29105 110.54930 12389 ft 367 kts 346°
2026-05-08 14:00 20.31616 110.54294 12955 ft 373 kts 346°
2026-05-08 14:00 20.34139 110.53654 13540 ft 377 kts 346°
2026-05-08 14:00 20.36714 110.53001 14114 ft 380 kts 346°
2026-05-08 14:01 20.39299 110.52346 14635 ft 383 kts 346°
2026-05-08 14:01 20.41904 110.51686 15162 ft 387 kts 346°
2026-05-08 14:01 20.44549 110.51138 15714 ft 389 kts 352°
2026-05-08 14:01 20.47266 110.51086 16179 ft 394 kts
2026-05-08 14:02 20.49949 110.51689 16729 ft 395 kts 18°
2026-05-08 14:02 20.52449 110.52913 17258 ft 397 kts 31°
2026-05-08 14:02 20.54647 110.54705 17756 ft 401 kts 44°
2026-05-08 14:02 20.56616 110.56847 18082 ft 408 kts 48°
2026-05-08 14:03 20.58473 110.59108 18534 ft 409 kts 50°
2026-05-08 14:03 20.60301 110.61444 18973 ft 411 kts 51°
2026-05-08 14:03 20.62127 110.63805 19404 ft 413 kts 51°
2026-05-08 14:03 20.63962 110.66164 19918 ft 413 kts 50°
2026-05-08 14:04 20.65814 110.68519 20389 ft 415 kts 50°
2026-05-08 14:04 20.67681 110.70871 20843 ft 416 kts 50°
2026-05-08 14:04 20.69564 110.73227 21352 ft 418 kts 50°
2026-05-08 14:04 20.71458 110.75590 21849 ft 419 kts 49°
2026-05-08 14:05 20.73359 110.77959 22339 ft 421 kts 49°
2026-05-08 14:05 20.75269 110.80340 22830 ft 423 kts 49°
2026-05-08 14:05 20.77187 110.82732 23282 ft 426 kts 49°
2026-05-08 14:05 20.79118 110.85141 23667 ft 429 kts 49°
2026-05-08 14:06 20.81070 110.87580 24062 ft 432 kts 49°
2026-05-08 14:06 20.83025 110.90025 24401 ft 435 kts 49°
2026-05-08 14:06 20.85003 110.92501 24749 ft 439 kts 49°
2026-05-08 14:06 20.86992 110.94991 25142 ft 442 kts 49°
2026-05-08 14:07 20.88998 110.97503 25527 ft 446 kts 49°
2026-05-08 14:07 20.91021 111.00039 25939 ft 450 kts 49°
2026-05-08 14:07 20.93063 111.02598 26335 ft 453 kts 49°
2026-05-08 14:07 20.95114 111.05170 26741 ft 457 kts 49°
2026-05-08 14:08 20.97185 111.07767 27115 ft 461 kts 49°
2026-05-08 14:08 20.99283 111.10380 27519 ft 465 kts 49°
2026-05-08 14:08 21.01396 111.13006 27956 ft 467 kts 49°
2026-05-08 14:08 21.03535 111.15663 28280 ft 473 kts 49°
2026-05-08 14:09 21.05686 111.18336 28669 ft 476 kts 49°
2026-05-08 14:09 21.07856 111.21038 29021 ft 480 kts 48°
2026-05-08 14:09 21.10022 111.23737 29094 ft 475 kts 48°
2026-05-08 14:09 21.12144 111.26386 29100 ft 463 kts 48°
2026-05-08 14:10 21.14226 111.28986 29097 ft 458 kts 48°
2026-05-08 14:10 21.18367 111.34159 29093 ft 458 kts 48°
2026-05-08 14:11 21.22517 111.39347 29093 ft 458 kts 48°
2026-05-08 14:11 21.26661 111.44533 29093 ft 458 kts 49°
2026-05-08 14:12 21.30101 111.48841 29099 ft 458 kts 49°
2026-05-08 14:12 21.34237 111.54027 29104 ft 458 kts 48°
2026-05-08 14:13 21.38345 111.59183 29098 ft 459 kts 49°
2026-05-08 14:13 21.42490 111.64389 29101 ft 459 kts 49°
2026-05-08 14:14 21.46645 111.69612 29101 ft 459 kts 49°
2026-05-08 14:14 21.50786 111.74824 29107 ft 459 kts 49°
2026-05-08 14:15 21.54897 111.80009 29100 ft 459 kts 49°
2026-05-08 14:15 21.58233 111.85829 29102 ft 461 kts 64°
2026-05-08 14:16 21.60862 111.92120 29103 ft 463 kts 65°
2026-05-08 14:16 21.63366 111.98429 29100 ft 465 kts 66°
2026-05-08 14:17 21.65907 112.04844 29101 ft 465 kts 66°
2026-05-08 14:17 21.68450 112.11223 29099 ft 465 kts 66°
2026-05-08 14:18 21.71006 112.17622 29099 ft 465 kts 66°
2026-05-08 14:18 21.73550 112.24000 29096 ft 464 kts 66°
2026-05-08 14:19 21.76094 112.30384 29096 ft 464 kts 66°
2026-05-08 14:19 21.78634 112.36769 29101 ft 464 kts 66°
2026-05-08 14:20 21.81152 112.43109 29103 ft 464 kts 66°
2026-05-08 14:20 21.83676 112.49471 29102 ft 466 kts 65°
2026-05-08 14:21 21.86192 112.55818 29095 ft 469 kts 65°
2026-05-08 14:21 21.88786 112.62263 29098 ft 469 kts 65°
2026-05-08 14:22 21.91408 112.68723 29094 ft 469 kts 65°
2026-05-08 14:22 21.94017 112.75172 29097 ft 469 kts 65°
2026-05-08 14:23 21.96612 112.81611 29101 ft 468 kts 65°
2026-05-08 14:23 21.99159 112.88052 29094 ft 467 kts 66°
2026-05-08 14:24 22.01662 112.94512 29094 ft 467 kts 66°
2026-05-08 14:24 22.04165 113.00976 29091 ft 467 kts 66°
2026-05-08 14:25 22.06781 113.07383 29093 ft 469 kts 63°
2026-05-08 14:25 22.09497 113.13791 29089 ft 470 kts 63°
2026-05-08 14:26 22.12195 113.20212 29092 ft 470 kts 64°
2026-05-08 14:26 22.14854 113.26657 29087 ft 470 kts 65°
2026-05-08 14:27 22.17284 113.33191 29088 ft 471 kts 67°
2026-05-08 14:27 22.19661 113.39791 29086 ft 471 kts 66°
2026-05-08 14:28 22.22344 113.46205 29090 ft 467 kts 55°
2026-05-08 14:28 22.26341 113.51555 29090 ft 463 kts 45°
2026-05-08 14:29 22.30614 113.56537 29091 ft 462 kts 43°
2026-05-08 14:29 22.35060 113.61627 29089 ft 463 kts 43°
2026-05-08 14:30 22.39461 113.66702 29089 ft 463 kts 43°
2026-05-08 14:30 22.43837 113.71780 29089 ft 463 kts 43°
2026-05-08 14:31 22.48228 113.76889 29086 ft 463 kts 44°
2026-05-08 14:31 22.52600 113.81981 29108 ft 462 kts 43°
2026-05-08 14:32 22.59179 113.89649 29095 ft 464 kts 43°
2026-05-08 14:32 22.63575 113.94781 29091 ft 464 kts 43°
2026-05-08 14:33 22.67913 113.99957 29092 ft 467 kts 48°
2026-05-08 14:33 22.69712 114.02898 29094 ft 471 kts 59°
2026-05-08 14:33 22.70985 114.06182 29093 ft 475 kts 71°
2026-05-08 14:34 22.72147 114.13198 29093 ft 479 kts 81°
2026-05-08 14:34 22.72861 114.20349 29092 ft 479 kts 82°
2026-05-08 14:35 22.73535 114.27545 29095 ft 479 kts 82°
2026-05-08 14:35 22.74248 114.34724 29105 ft 479 kts 82°
2026-05-08 14:36 22.74986 114.41936 29103 ft 482 kts 82°
2026-05-08 14:36 22.75726 114.49144 29100 ft 482 kts 82°
2026-05-08 14:37 22.76460 114.56359 29100 ft 482 kts 82°
2026-05-08 14:37 22.77197 114.63571 29102 ft 482 kts 82°
2026-05-08 14:38 22.77935 114.70782 29111 ft 482 kts 82°
2026-05-08 14:38 22.78673 114.77987 29111 ft 481 kts 82°
2026-05-08 14:39 22.79442 114.85201 29110 ft 481 kts 82°
2026-05-08 14:39 22.80212 114.92407 29116 ft 481 kts 82°
2026-05-08 14:40 22.80939 114.99262 29112 ft 481 kts 82°
2026-05-08 14:40 22.81708 115.06555 29119 ft 481 kts 82°
2026-05-08 14:41 22.82468 115.13812 29120 ft 481 kts 82°
2026-05-08 14:41 22.83215 115.20970 29113 ft 481 kts 82°
2026-05-08 14:42 22.83962 115.28169 29119 ft 481 kts 82°
2026-05-08 14:42 22.84707 115.35387 29117 ft 481 kts 82°
2026-05-08 14:43 22.85449 115.42592 29132 ft 481 kts 82°
2026-05-08 14:43 22.86188 115.49799 29124 ft 482 kts 82°
2026-05-08 14:44 22.86921 115.56996 29130 ft 483 kts 82°
2026-05-08 14:44 22.87643 115.64121 29132 ft 484 kts 82°
2026-05-08 14:45 22.88383 115.71443 29136 ft 484 kts 82°
2026-05-08 14:45 22.89112 115.78694 29140 ft 484 kts 82°
2026-05-08 14:46 22.89839 115.85953 29145 ft 484 kts 82°
2026-05-08 14:46 22.90577 115.93216 29148 ft 484 kts 82°
2026-05-08 14:47 22.91339 116.00455 29144 ft 483 kts 82°
2026-05-08 14:47 22.92098 116.07694 29145 ft 483 kts 82°
2026-05-08 14:48 22.92846 116.14929 29143 ft 482 kts 82°
2026-05-08 14:48 22.93588 116.22161 29137 ft 482 kts 82°
2026-05-08 14:49 22.94350 116.29386 29130 ft 481 kts 79°
2026-05-08 14:49 22.95148 116.32848 29148 ft 477 kts 67°
2026-05-08 14:49 22.96567 116.36046 29147 ft 465 kts 54°
2026-05-08 14:50 22.98540 116.38746 29149 ft 453 kts 40°
2026-05-08 14:50 23.00901 116.41010 29045 ft 459 kts 35°
2026-05-08 14:50 23.03447 116.43193 28964 ft 473 kts 33°
2026-05-08 14:50 23.06111 116.45370 28893 ft 486 kts 32°
2026-05-08 14:51 23.08836 116.47568 28677 ft 488 kts 32°
2026-05-08 14:51 23.11555 116.49770 28422 ft 487 kts 33°
2026-05-08 14:51 23.14253 116.51974 28175 ft 485 kts 33°
2026-05-08 14:51 23.16932 116.54177 27923 ft 482 kts 33°
2026-05-08 14:52 23.19418 116.56231 27696 ft 481 kts 33°
2026-05-08 14:52 23.24696 116.60607 27226 ft 477 kts 33°
2026-05-08 14:52 23.27300 116.62771 26991 ft 476 kts 33°
2026-05-08 14:53 23.29888 116.64921 26759 ft 474 kts 33°
2026-05-08 14:53 23.32506 116.67095 26519 ft 472 kts 33°
2026-05-08 14:53 23.35119 116.69267 26275 ft 470 kts 33°
2026-05-08 14:53 23.37570 116.71305 26079 ft 469 kts 34°
2026-05-08 14:54 23.40234 116.73522 25830 ft 467 kts 34°
2026-05-08 14:54 23.42815 116.75684 25596 ft 466 kts 35°
2026-05-08 14:54 23.45196 116.78074 25372 ft 467 kts 41°
2026-05-08 14:54 23.47496 116.80572 25144 ft 465 kts 42°
2026-05-08 14:55 23.49747 116.83094 24923 ft 465 kts 43°
2026-05-08 14:55 23.51969 116.85621 24700 ft 463 kts 43°
2026-05-08 14:55 23.54199 116.88173 24477 ft 462 kts 43°
2026-05-08 14:55 23.56374 116.90662 24263 ft 460 kts 43°
2026-05-08 14:56 23.58579 116.93181 24043 ft 459 kts 43°
2026-05-08 14:56 23.60782 116.95693 23816 ft 456 kts 43°
2026-05-08 14:56 23.62961 116.98177 23389 ft 450 kts 43°
2026-05-08 14:56 23.65126 117.00643 22872 ft 447 kts 43°
2026-05-08 14:57 23.67268 117.03081 22332 ft 443 kts 44°
2026-05-08 14:57 23.69398 117.05506 21819 ft 440 kts 44°
2026-05-08 14:57 23.70793 117.07095 21465 ft 438 kts 44°
2026-05-08 14:57 23.73604 117.10298 20762 ft 435 kts 43°
2026-05-08 14:58 23.74986 117.11874 20422 ft 433 kts 44°
2026-05-08 14:58 23.77751 117.14989 19725 ft 428 kts 41°
2026-05-08 14:58 23.79987 117.17171 19204 ft 424 kts 38°
2026-05-08 14:58 23.82185 117.19246 18681 ft 422 kts 38°
2026-05-08 14:59 23.83676 117.20669 18330 ft 421 kts 39°
2026-05-08 14:59 23.88714 117.25538 17090 ft 411 kts 39°
2026-05-08 14:59 23.90149 117.26934 16745 ft 408 kts 39°
2026-05-08 15:00 23.92260 117.28993 16243 ft 404 kts 39°
2026-05-08 15:00 23.94355 117.31045 15514 ft 407 kts 40°
2026-05-08 15:00 23.96434 117.33089 15159 ft 398 kts 39°
2026-05-08 15:00 23.98487 117.35092 14721 ft 393 kts 39°
2026-05-08 15:01 24.00521 117.37079 14257 ft 391 kts 39°
2026-05-08 15:01 24.02535 117.39049 13724 ft 388 kts 39°
2026-05-08 15:01 24.04519 117.40991 13144 ft 386 kts 39°
2026-05-08 15:01 24.06535 117.42966 12514 ft 383 kts 39°
2026-05-08 15:02 24.08483 117.44883 11991 ft 379 kts 39°
2026-05-08 15:02 24.10437 117.46800 11476 ft 375 kts 39°
2026-05-08 15:02 24.12374 117.48700 10915 ft 372 kts 39°
2026-05-08 15:02 24.14242 117.50636 10385 ft 370 kts 44°
2026-05-08 15:03 24.15975 117.52680 10083 ft 360 kts 45°
2026-05-08 15:03 24.17630 117.54669 9877 ft 347 kts 45°
2026-05-08 15:03 24.19225 117.56584 9623 ft 335 kts 45°
2026-05-08 15:03 24.20772 117.58438 9368 ft 324 kts 45°
2026-05-08 15:04 24.22268 117.60231 9193 ft 312 kts 45°
2026-05-08 15:04 24.23714 117.61962 8897 ft 305 kts 45°
2026-05-08 15:04 24.25120 117.63648 8689 ft 294 kts 44°
2026-05-08 15:04 24.26461 117.65257 8488 ft 277 kts 45°
2026-05-08 15:05 24.27723 117.66774 8258 ft 260 kts 45°
2026-05-08 15:05 24.28914 117.68204 7916 ft 251 kts 44°
2026-05-08 15:05 24.30080 117.69601 7490 ft 246 kts 44°
2026-05-08 15:05 24.31227 117.70975 7020 ft 243 kts 44°
2026-05-08 15:06 24.32360 117.72334 6607 ft 239 kts 43°
2026-05-08 15:06 24.33471 117.73666 6175 ft 234 kts 44°
2026-05-08 15:06 24.34557 117.74971 5754 ft 229 kts 46°
2026-05-08 15:06 24.35620 117.76247 5327 ft 223 kts 46°
2026-05-08 15:07 24.36648 117.77477 4952 ft 216 kts 47°
2026-05-08 15:07 24.37647 117.78676 4574 ft 208 kts 48°
2026-05-08 15:07 24.38586 117.79794 4397 ft 191 kts 49°
2026-05-08 15:08 24.39839 117.82197 3905 ft 174 kts 80°
2026-05-08 15:08 24.39965 117.83409 3854 ft 175 kts 84°
2026-05-08 15:08 24.40061 117.84757 3490 ft 180 kts 83°
2026-05-08 15:08 24.40153 117.86090 3177 ft 170 kts 83°
2026-05-08 15:09 24.40242 117.87359 2814 ft 165 kts 82°
2026-05-08 15:09 24.40331 117.88600 2430 ft 161 kts 81°
2026-05-08 15:09 24.40425 117.89825 2289 ft 165 kts 83°
2026-05-08 15:09 24.40528 117.91124 2275 ft 175 kts 84°
2026-05-08 15:10 24.40695 117.92462 2272 ft 178 kts 77°
2026-05-08 15:10 24.41070 117.93757 2267 ft 179 kts 66°
2026-05-08 15:10 24.41718 117.94918 2279 ft 179 kts 53°
2026-05-08 15:10 24.42477 117.95995 2272 ft 178 kts 52°
2026-05-08 15:11 24.43216 117.97085 2282 ft 178 kts 53°
2026-05-08 15:11 24.43978 117.98159 2280 ft 178 kts 52°
2026-05-08 15:11 24.44743 117.99226 2269 ft 176 kts 52°
2026-05-08 15:11 24.45460 118.00231 2280 ft 157 kts 52°
2026-05-08 15:12 24.46082 118.01106 2279 ft 138 kts 53°
2026-05-08 15:12 24.46654 118.01912 2206 ft 133 kts 53°
2026-05-08 15:12 24.47223 118.02712 2046 ft 133 kts 52°
2026-05-08 15:12 24.47799 118.03518 1857 ft 135 kts 52°
2026-05-08 15:13 24.48381 118.04330 1690 ft 136 kts 52°
2026-05-08 15:13 24.48963 118.05144 1500 ft 136 kts 52°
2026-05-08 15:13 24.49549 118.05964 1331 ft 137 kts 52°
2026-05-08 15:13 24.50135 118.06783 1145 ft 135 kts 52°
2026-05-08 15:14 24.50697 118.07568 979 ft 125 kts 52°
2026-05-08 15:14 24.51226 118.08310 812 ft 124 kts 52°
2026-05-08 15:14 24.51762 118.09060 667 ft 126 kts 52°
2026-05-08 15:14 24.52301 118.09811 482 ft 126 kts 54°
2026-05-08 15:15 24.52852 118.10583 321 ft 129 kts 53°
2026-05-08 15:15 24.53406 118.11359 154 ft 130 kts 52°
2026-05-08 15:15 24.53953 118.12122 55 ft 113 kts 53°
2026-05-08 15:15 24.54217 118.12502 54 ft 39 kts 52°
2026-05-08 15:16 24.54379 118.12732 51 ft 37 kts 52°
2026-05-08 15:16 24.54506 118.12968 51 ft 35 kts 73°
2026-05-08 15:16 24.54538 118.13136 55 ft 14 kts 79°
2026-05-08 15:16 24.54559 118.13254 58 ft 17 kts 79°
2026-05-08 15:17 24.54602 118.13323 49 ft 11 kts 51°
2026-05-08 15:17 24.54660 118.13401 52 ft 15 kts 51°
2026-05-08 15:17 24.54729 118.13498 50 ft 18 kts 52°
2026-05-08 15:17 24.54811 118.13612 47 ft 20 kts 52°
2026-05-08 15:18 24.54858 118.13678 49 ft 11 kts 54°
2026-05-08 15:18 24.54857 118.13747 48 ft 8 kts 132°
2026-05-08 15:18 24.54809 118.13791 47 ft 10 kts 140°
2026-05-08 15:18 24.54748 118.13845 49 ft 12 kts 141°
2026-05-08 15:19 24.54737 118.13854 47 ft 0 kts 141°
2026-05-08 15:19 24.54737 118.13855 47 ft 0 kts 141°
2026-05-08 15:19 24.54724 118.13867 48 ft 5 kts 138°
2026-05-08 15:20 24.54711 118.13892 47 ft 0 kts 106°
2026-05-08 15:20 24.54714 118.13898 48 ft 1 kts 71°
2026-05-08 15:20 24.54740 118.13930 49 ft 8 kts 49°
2026-05-08 15:21 24.54752 118.13945 47 ft 0 kts 52°
2026-05-08 15:21 24.54764 118.13961 47 ft 3 kts 52°
2026-05-08 15:21 24.54765 118.13963 48 ft 0 kts 52°
2026-05-08 15:21 24.54766 118.13964 48 ft 0 kts 52°